EW5845 Weather Reports


Display with metric or nautical units.
time (UTC)temp
F
wind
direction
speed
MPH
gust
MPH
rain 1hr
in
rain 24hr
in
rain mn
in
humidity
%
barometer
mb
20191018204509 62 30 0.0 3.0 0.00 0.00 0.00 8 1017.6
20191018204009 61 30 1.0 3.0 0.00 0.00 0.00 7 1017.6
20191018203509 61 9 1.0 5.0 0.00 0.00 0.00 10 1017.6
20191018203010 62 16 2.0 3.0 0.00 0.00 0.00 7 1017.6
20191018202510 62 17 2.0 3.0 0.00 0.00 0.00 7 1017.6
20191018202010 61 18 0.0 3.0 0.00 0.00 0.00 8 1017.7
20191018201513 61 17 1.0 3.0 0.00 0.00 0.00 8 1017.8
20191018201009 61 19 2.0 3.0 0.00 0.00 0.00 7 1017.9
20191018200510 60 20 1.0 3.0 0.00 0.00 0.00 9 1018.0
20191018200010 59 19 1.0 2.0 0.00 0.00 0.00 8 1018.1
20191018195509 59 19 2.0 3.0 0.00 0.00 0.00 7 1018.3
20191018195010 59 11 1.0 3.0 0.00 0.00 0.00 9 1018.3
20191018194510 58 9 1.0 5.0 0.00 0.00 0.00 11 1018.4
20191018194009 58 12 2.0 5.0 0.00 0.00 0.00 8 1018.4
20191018193510 58 15 2.0 3.0 0.00 0.00 0.00 8 1018.5
20191018193010 59 23 1.0 3.0 0.00 0.00 0.00 11 1018.6
20191018192509 58 40 0.0 2.0 0.00 0.00 0.00 13 1018.6
20191018192010 58 40 1.0 3.0 0.00 0.00 0.00 13 1018.6
20191018191511 57 26 0.0 3.0 0.00 0.00 0.00 12 1018.7
20191018191010 58 27 1.0 3.0 0.00 0.00 0.00 11 1018.7
20191018190509 57 27 1.0 3.0 0.00 0.00 0.00 13 1018.6
20191018190009 57 27 1.0 3.0 0.00 0.00 0.00 12 1018.7
20191018185509 57 27 1.0 2.0 0.00 0.00 0.00 14 1018.6
20191018185011 56 27 1.0 3.0 0.00 0.00 0.00 16 1018.5
20191018184510 56 22 1.0 3.0 0.00 0.00 0.00 15 1018.5
20191018184010 56 28 1.0 7.0 0.00 0.00 0.00 14 1018.5
20191018183509 56 33 1.0 7.0 0.00 0.00 0.00 14 1018.5
20191018183009 56 51 1.0 3.0 0.00 0.00 0.00 14 1018.6
20191018182509 56 57 1.0 3.0 0.00 0.00 0.00 15 1018.3
20191018182009 55 42 2.0 6.0 0.00 0.00 0.00 16 1018.4
20191018181509 55 11 2.0 5.0 0.00 0.00 0.00 16 1018.4
20191018181009 54 329 2.0 8.0 0.00 0.00 0.00 16 1018.4
20191018180509 53 22 2.0 5.0 0.00 0.00 0.00 17 1018.5
20191018180012 52 15 1.0 5.0 0.00 0.00 0.00 17 1018.5
20191018175509 51 328 2.0 8.0 0.00 0.00 0.00 18 1018.4
20191018175009 51 56 2.0 8.0 0.00 0.00 0.00 18 1018.4
20191018174509 51 85 2.0 5.0 0.00 0.00 0.00 18 1018.6
20191018174009 51 74 2.0 13.0 0.00 0.00 0.00 19 1018.4
20191018173509 51 72 1.0 13.0 0.00 0.00 0.00 21 1018.3
20191018173010 51 88 1.0 3.0 0.00 0.00 0.00 22 1018.3
20191018172509 51 88 3.0 13.0 0.00 0.00 0.00 21 1018.2
20191018172009 51 73 2.0 12.0 0.00 0.00 0.00 22 1018.2
20191018171512 51 61 1.0 3.0 0.00 0.00 0.00 21 1018.3
20191018171009 51 69 2.0 9.0 0.00 0.00 0.00 21 1018.1
20191018170509 51 23 1.0 3.0 0.00 0.00 0.00 23 1018.1
20191018170009 50 108 1.0 8.0 0.00 0.00 0.00 24 1018.0
20191018165509 51 342 2.0 3.0 0.00 0.00 0.00 23 1017.9
20191018165009 50 332 2.0 10.0 0.00 0.00 0.00 23 1017.9
20191018164509 50 52 3.0 12.0 0.00 0.00 0.00 22 1017.8
20191018164009 51 25 3.0 12.0 0.00 0.00 0.00 23 1017.8
20191018163509 50 333 2.0 7.0 0.00 0.00 0.00 24 1017.7
20191018163009 50 93 2.0 6.0 0.00 0.00 0.00 22 1017.6
20191018162509 50 74 3.0 7.0 0.00 0.00 0.00 23 1017.7
20191018162010 50 64 2.0 7.0 0.00 0.00 0.00 24 1017.5
20191018161509 50 71 2.0 8.0 0.00 0.00 0.00 26 1017.4
20191018161010 49 57 3.0 7.0 0.00 0.00 0.00 26 1017.3
20191018160509 49 47 2.0 12.0 0.00 0.00 0.00 28 1017.2
20191018160009 48 66 2.0 7.0 0.00 0.00 0.00 30 1017.1
20191018155509 48 90 2.0 6.0 0.00 0.00 0.00 30 1016.9
20191018155009 47 91 3.0 8.0 0.00 0.00 0.00 31 1016.8
20191018154509 47 67 3.0 9.0 0.00 0.00 0.00 34 1016.8
20191018154009 46 67 3.0 9.0 0.00 0.00 0.00 36 1016.7
20191018153509 46 37 1.0 3.0 0.00 0.00 0.00 40 1016.8
20191018153009 45 55 2.0 3.0 0.00 0.00 0.00 39 1016.8
20191018152509 45 117 1.0 2.0 0.00 0.00 0.00 41 1016.7
20191018152009 44 117 2.0 7.0 0.00 0.00 0.00 41 1016.5
20191018151509 44 59 2.0 3.0 0.00 0.00 0.00 42 1016.3
20191018151009 43 59 2.0 3.0 0.00 0.00 0.00 43 1016.3
20191018150509 43 59 1.0 3.0 0.00 0.00 0.00 43 1016.3
20191018150009 42 58 1.0 3.0 0.00 0.00 0.00 44 1016.3
20191018145509 42 58 2.0 3.0 0.00 0.00 0.00 44 1016.3
20191018145009 42 58 1.0 3.0 0.00 0.00 0.00 45 1016.2
20191018144509 41 58 1.0 3.0 0.00 0.00 0.00 45 1016.0
20191018144010 41 58 1.0 5.0 0.00 0.00 0.00 44 1016.0
20191018143509 41 58 0.0 5.0 0.00 0.00 0.00 45 1015.9
20191018143009 40 59 1.0 5.0 0.00 0.00 0.00 46 1015.9
20191018142509 40 47 0.0 2.0 0.00 0.00 0.00 46 1015.9
20191018142009 40 47 0.0 2.0 0.00 0.00 0.00 46 1015.8
20191018141509 40 47 1.0 3.0 0.00 0.00 0.00 46 1015.6
20191018141009 40 46 1.0 2.0 0.00 0.00 0.00 46 1015.4
20191018140509 40 46 1.0 3.0 0.00 0.00 0.00 46 1015.4
20191018140009 40 46 1.0 2.0 0.00 0.00 0.00 47 1015.1
20191018135508 40 46 0.0 3.0 0.00 0.00 0.00 47 1014.9
20191018135010 40 43 2.0 6.0 0.00 0.00 0.00 47 1015.2
20191018134509 40 21 0.0 0.0 0.00 0.00 0.00 48 1015.1
20191018134009 40 21 0.0 0.0 0.00 0.00 0.00 48 1015.0
20191018133509 40 21 0.0 0.0 0.00 0.00 0.00 48 1014.8
20191018133009 40 21 0.0 1.0 0.00 0.00 0.00 48 1014.8
20191018132509 40 21 0.0 2.0 0.00 0.00 0.00 48 1014.7
20191018132009 40 21 1.0 3.0 0.00 0.00 0.00 49 1014.5
20191018131509 40 5 0.0 3.0 0.00 0.00 0.00 50 1014.4
20191018131009 39 44 2.0 9.0 0.00 0.00 0.00 51 1014.3
20191018130509 39 351 1.0 2.0 0.00 0.00 0.00 52 1014.3
20191018130009 39 351 1.0 3.0 0.00 0.00 0.00 53 1014.3
20191018125509 39 351 0.0 5.0 0.00 0.00 0.00 54 1014.2
20191018125009 39 346 2.0 6.0 0.00 0.00 0.00 54 1014.0
20191018124508 39 341 1.0 3.0 0.00 0.00 0.00 55 1014.0
20191018124009 38 337 0.0 2.0 0.00 0.00 0.00 56 1014.0
20191018123509 38 337 1.0 2.0 0.00 0.00 0.00 57 1014.0
20191018123009 38 337 1.0 2.0 0.00 0.00 0.00 57 1013.9
20191018122510 38 337 0.0 2.0 0.00 0.00 0.00 58 1013.9
20191018122009 38 337 0.0 2.0 0.00 0.00 0.00 58 1013.8
20191018121509 39 337 0.0 1.0 0.00 0.00 0.00 57 1013.7
20191018121009 39 337 0.0 1.0 0.00 0.00 0.00 57 1013.7
20191018120508 39 337 0.0 1.0 0.00 0.00 0.00 56 1013.6
20191018120009 39 337 1.0 2.0 0.00 0.00 0.00 55 1013.7
20191018115509 40 337 1.0 2.0 0.00 0.00 0.00 55 1013.8
20191018115010 40 337 0.0 2.0 0.00 0.00 0.00 54 1013.6
20191018114509 40 337 0.0 1.0 0.00 0.00 0.00 54 1013.5
20191018114009 40 337 1.0 3.0 0.00 0.00 0.00 54 1013.3
20191018113510 40 337 0.0 5.0 0.00 0.00 0.00 54 1013.0
20191018113009 40 322 1.0 2.0 0.00 0.00 0.00 54 1013.1
20191018112509 40 322 0.0 2.0 0.00 0.00 0.00 54 1012.8
20191018112009 40 322 1.0 2.0 0.00 0.00 0.00 54 1012.9
20191018111509 40 322 1.0 3.0 0.00 0.00 0.00 55 1012.8
20191018111009 39 322 1.0 3.0 0.00 0.00 0.00 55 1012.7
20191018110511 39 322 1.0 2.0 0.00 0.00 0.00 56 1012.7
20191018110011 39 322 1.0 3.0 0.00 0.00 0.00 57 1012.7
20191018105509 38 322 1.0 2.0 0.00 0.00 0.00 57 1012.7
20191018105009 38 322 1.0 3.0 0.00 0.00 0.00 57 1012.7
20191018104509 38 322 1.0 3.0 0.00 0.00 0.00 57 1012.7
20191018104009 38 322 2.0 3.0 0.00 0.00 0.00 56 1012.6
20191018103509 38 321 1.0 2.0 0.00 0.00 0.00 55 1012.6
20191018103010 39 316 0.0 3.0 0.00 0.00 0.00 54 1012.7
20191018102509 39 313 2.0 3.0 0.00 0.00 0.00 53 1012.7
20191018102009 39 311 2.0 3.0 0.00 0.00 0.00 52 1012.7
20191018101509 40 307 2.0 5.0 0.00 0.00 0.00 52 1012.5
20191018101009 40 312 2.0 3.0 0.00 0.00 0.00 51 1012.5
20191018100509 41 312 2.0 3.0 0.00 0.00 0.00 50 1012.5
20191018100009 41 315 2.0 3.0 0.00 0.00 0.00 50 1012.2
20191018095509 41 315 1.0 3.0 0.00 0.00 0.00 50 1012.2
20191018095009 41 323 2.0 6.0 0.00 0.00 0.00 51 1012.0
20191018094511 41 41 0.0 2.0 0.00 0.00 0.00 50 1012.0
20191018094010 42 69 0.0 2.0 0.00 0.00 0.00 50 1011.8
20191018093509 42 101 1.0 3.0 0.00 0.00 0.00 51 1011.9
20191018093008 42 116 0.0 3.0 0.00 0.00 0.00 51 1011.9
20191018092509 42 135 1.0 3.0 0.00 0.00 0.00 52 1011.8
20191018092009 41 62 1.0 3.0 0.00 0.00 0.00 51 1011.8
20191018091511 41 55 2.0 5.0 0.00 0.00 0.00 50 1011.8
20191018091009 41 172 1.0 5.0 0.00 0.00 0.00 50 1011.9
20191018090509 41 170 2.0 5.0 0.00 0.00 0.00 51 1011.9
20191018090009 40 19 1.0 3.0 0.00 0.00 0.00 51 1011.9
20191018085508 40 22 2.0 6.0 0.00 0.00 0.00 52 1011.8
20191018085009 39 348 1.0 3.0 0.00 0.00 0.00 52 1011.8
20191018084509 38 341 2.0 5.0 0.00 0.00 0.00 51 1011.8
20191018084009 38 350 0.0 2.0 0.00 0.00 0.00 49 1011.8
20191018083509 38 350 0.0 2.0 0.00 0.00 0.00 47 1011.9
20191018083009 38 350 0.0 2.0 0.00 0.00 0.00 46 1011.9
20191018082509 39 350 0.0 2.0 0.00 0.00 0.00 45 1011.9
20191018082009 39 350 0.0 1.0 0.00 0.00 0.00 44 1012.0
20191018081508 39 350 1.0 3.0 0.00 0.00 0.00 43 1011.9
20191018081009 40 341 1.0 5.0 0.00 0.00 0.00 42 1011.8
20191018080509 40 310 2.0 5.0 0.00 0.00 0.00 41 1011.7
20191018080008 40 310 2.0 5.0 0.00 0.00 0.00 41 1011.5
20191018075509 40 310 2.0 3.0 0.00 0.00 0.00 41 1011.3
20191018075009 40 310 2.0 9.0 0.00 0.00 0.00 41 1011.2
20191018074508 40 309 2.0 6.0 0.00 0.00 0.00 41 1011.1
20191018074009 41 309 3.0 7.0 0.00 0.00 0.00 40 1011.0
20191018073509 41 309 3.0 7.0 0.00 0.00 0.00 39 1011.0
20191018073009 41 309 2.0 7.0 0.00 0.00 0.00 39 1011.0
20191018072509 42 311 3.0 5.0 0.00 0.00 0.00 39 1010.9
20191018072009 42 324 2.0 8.0 0.00 0.00 0.00 39 1010.9
20191018071508 42 342 1.0 5.0 0.00 0.00 0.00 41 1010.9
20191018071008 42 345 2.0 7.0 0.00 0.00 0.00 42 1011.1
20191018070508 43 282 4.0 8.0 0.00 0.00 0.00 42 1010.7
20191018070009 43 306 3.0 7.0 0.00 0.00 0.00 43 1010.8
20191018065509 43 297 1.0 6.0 0.00 0.00 0.00 42 1010.9
20191018065009 43 328 2.0 7.0 0.00 0.00 0.00 41 1010.9
20191018064509 43 283 1.0 7.0 0.00 0.00 0.00 42 1010.8
20191018064009 43 280 1.0 3.0 0.00 0.00 0.00 42 1010.8
20191018063508 43 279 2.0 9.0 0.00 0.00 0.00 41 1010.6
20191018063009 43 302 3.0 9.0 0.00 0.00 0.00 41 1010.4
20191018062508 43 357 2.0 5.0 0.00 0.00 0.00 46 1010.4
20191018062009 43 30 2.0 5.0 0.00 0.00 0.00 48 1010.1
20191018061509 44 355 1.0 7.0 0.00 0.00 0.00 48 1009.9
20191018061009 44 308 3.0 8.0 0.00 0.00 0.00 48 1009.6
20191018060508 43 274 3.0 12.0 0.00 0.00 0.00 47 1009.6
20191018060008 43 301 3.0 12.0 0.00 0.00 0.00 50 1009.3
20191018055508 42 250 5.0 12.0 0.00 0.00 0.00 52 1009.0
20191018055009 42 215 2.0 3.0 0.00 0.00 0.00 54 1009.4
20191018054509 42 215 1.0 2.0 0.00 0.00 0.00 55 1009.9
20191018054009 42 215 1.0 2.0 0.00 0.00 0.00 55 1009.7
20191018053509 42 215 1.0 3.0 0.00 0.00 0.00 54 1009.8
20191018053009 42 215 1.0 3.0 0.00 0.00 0.00 53 1009.8
20191018052509 42 215 0.0 1.0 0.00 0.00 0.00 51 1009.9
20191018052009 42 215 1.0 3.0 0.00 0.00 0.00 49 1009.9
20191018051509 42 215 2.0 3.0 0.00 0.00 0.00 47 1009.7
20191018051008 43 215 0.0 1.0 0.00 0.00 0.00 46 1009.7
20191018050508 43 215 1.0 3.0 0.00 0.00 0.00 45 1009.6
20191018050009 43 215 1.0 2.0 0.00 0.00 0.00 44 1009.3
20191018045509 43 215 0.0 2.0 0.00 0.00 0.00 43 1009.3
20191018045009 43 215 0.0 0.0 0.00 0.00 0.00 44 1008.9
20191018044009 44 215 1.0 6.0 0.00 0.00 0.00 46 1008.8
20191018043508 44 225 5.0 12.0 0.00 0.00 0.00 47 1008.7
20191018043009 44 213 1.0 3.0 0.00 0.00 0.00 52 1008.7
20191018042509 44 213 2.0 10.0 0.00 0.00 0.00 54 1008.8
20191018042009 44 235 1.0 3.0 0.00 0.00 0.00 52 1008.7
20191018041509 44 235 2.0 3.0 0.00 0.00 0.00 54 1008.8
20191018041008 44 235 1.0 2.0 0.00 0.00 0.00 58 1008.8
20191018040508 44 235 1.0 2.0 0.00 0.00 0.00 59 1008.7
20191018040009 44 235 0.0 5.0 0.00 0.00 0.00 59 1008.8
20191018035508 44 240 3.0 8.0 0.00 0.00 0.00 60 1008.6
20191018035008 44 323 0.0 6.0 0.00 0.00 0.00 61 1008.7
20191018034509 44 311 2.0 9.0 0.00 0.00 0.00 62 1008.8
20191018034009 44 248 1.0 7.0 0.00 0.00 0.00 63 1008.9
20191018033508 44 300 1.0 12.0 0.00 0.00 0.00 64 1008.9
20191018033009 45 248 3.0 8.0 0.00 0.00 0.00 66 1008.9
20191018032509 45 208 2.0 5.0 0.00 0.00 0.00 65 1009.0
20191018032009 45 207 3.0 7.0 0.00 0.00 0.00 65 1008.9
20191018031508 45 257 2.0 3.0 0.00 0.00 0.00 62 1008.9
20191018031009 45 257 2.0 3.0 0.00 0.00 0.00 60 1009.0
20191018030509 46 269 1.0 8.0 0.00 0.00 0.00 59 1009.0
20191018030009 46 232 3.0 7.0 0.00 0.00 0.00 59 1009.0
20191018025509 46 221 3.0 10.0 0.00 0.00 0.00 59 1008.9
20191018025008 46 254 4.0 10.0 0.00 0.00 0.00 60 1008.9
20191018024509 46 240 3.0 8.0 0.00 0.00 0.00 60 1009.0
20191018024009 46 210 3.0 7.0 0.00 0.00 0.00 59 1008.9
20191018023509 46 259 3.0 7.0 0.00 0.00 0.00 59 1008.8
20191018023009 46 237 4.0 10.0 0.00 0.00 0.00 59 1008.8
20191018022508 46 258 3.0 9.0 0.00 0.00 0.00 58 1008.8
20191018022009 46 230 4.0 9.0 0.00 0.00 0.00 56 1008.8
20191018021509 46 236 3.0 9.0 0.00 0.00 0.00 56 1008.8
20191018021008 46 237 5.0 9.0 0.00 0.00 0.00 55 1008.7
20191018020508 46 224 3.0 8.0 0.00 0.00 0.00 55 1008.7
20191018020009 47 259 5.0 12.0 0.00 0.00 0.00 55 1008.6
20191018015509 47 221 5.0 14.0 0.00 0.00 0.00 54 1008.5
20191018015009 47 242 3.0 8.0 0.00 0.00 0.00 54 1008.5
20191018014508 47 243 1.0 5.0 0.00 0.00 0.00 54 1008.4
20191018014009 47 246 3.0 9.0 0.00 0.00 0.00 54 1008.4
20191018013508 47 229 5.0 7.0 0.00 0.00 0.00 53 1008.4
20191018013008 48 248 2.0 12.0 0.00 0.00 0.00 52 1008.5
20191018012508 48 244 3.0 12.0 0.00 0.00 0.00 50 1008.5
20191018012009 48 247 3.0 8.0 0.00 0.00 0.00 51 1008.5
20191018011508 48 235 4.0 14.0 0.00 0.00 0.00 49 1008.5
20191018011008 48 227 3.0 10.0 0.00 0.00 0.00 48 1008.5
20191018010508 49 235 4.0 12.0 0.00 0.00 0.00 47 1008.3
20191018010009 49 242 4.0 8.0 0.00 0.00 0.00 45 1008.5
20191018005508 49 253 5.0 10.0 0.00 0.00 0.00 44 1008.5
20191018005008 50 231 3.0 9.0 0.00 0.00 0.00 44 1008.6
20191018004508 50 240 5.0 17.0 0.00 0.00 0.00 44 1008.6
20191018004008 51 243 3.0 15.0 0.00 0.00 0.00 43 1008.4
20191018003509 51 189 5.0 14.0 0.00 0.00 0.00 43 1008.6
20191018003009 51 249 7.0 16.0 0.00 0.00 0.00 44 1008.5
20191018002508 51 245 5.0 15.0 0.00 0.00 0.00 42 1008.4
20191018002008 51 242 9.0 20.0 0.00 0.00 0.00 42 1008.5
20191018001508 52 237 6.0 16.0 0.00 0.00 0.00 43 1008.6
20191018001008 52 257 6.0 17.0 0.00 0.00 0.00 41 1008.6
20191018000508 53 228 7.0 18.0 0.00 0.00 0.00 41 1008.6
20191018000009 53 274 3.0 13.0 0.00 0.00 0.00 40 1008.6
20191017235508 53 240 6.0 18.0 0.00 0.00 0.00 39 1008.6
20191017235009 53 263 5.0 13.0 0.00 0.00 0.00 39 1008.6
20191017234508 53 233 5.0 12.0 0.00 0.00 0.00 38 1008.7
20191017234009 53 273 8.0 20.0 0.00 0.00 0.00 39 1008.6
20191017233508 53 241 7.0 13.0 0.00 0.00 0.00 39 1008.7
20191017233009 54 238 8.0 15.0 0.00 0.00 0.00 39 1008.7
20191017232508 54 242 7.0 15.0 0.00 0.00 0.00 38 1008.7
20191017232009 54 217 6.0 14.0 0.00 0.00 0.00 39 1008.7
20191017231508 54 217 7.0 14.0 0.00 0.00 0.00 39 1008.7
20191017231009 54 241 7.0 13.0 0.00 0.00 0.00 40 1008.8
20191017230508 54 259 6.0 20.0 0.00 0.00 0.00 40 1008.8
20191017230008 54 220 6.0 13.0 0.00 0.00 0.00 40 1008.9
20191017225509 55 200 7.0 13.0 0.00 0.00 0.00 39 1009.0
20191017225008 54 231 9.0 18.0 0.00 0.00 0.00 39 1009.0
20191017224508 54 227 7.0 20.0 0.00 0.00 0.00 40 1008.9
20191017224008 54 258 5.0 18.0 0.00 0.00 0.00 40 1009.1
20191017223508 55 217 9.0 16.0 0.00 0.00 0.00 39 1009.1
20191017223009 55 220 7.0 13.0 0.00 0.00 0.00 42 1009.1
20191017222508 55 212 10.0 21.0 0.00 0.00 0.00 40 1009.1
20191017222008 55 233 9.0 20.0 0.00 0.00 0.00 37 1009.0
20191017221509 56 219 7.0 14.0 0.00 0.00 0.00 39 1008.9
20191017221008 55 218 7.0 16.0 0.00 0.00 0.00 39 1009.0
20191017220508 55 222 9.0 20.0 0.00 0.00 0.00 41 1009.0
20191017220009 55 220 7.0 15.0 0.00 0.00 0.00 40 1008.9
20191017215508 55 226 6.0 15.0 0.00 0.00 0.00 40 1008.8
20191017215008 55 221 6.0 17.0 0.00 0.00 0.00 40 1008.8
20191017214508 55 227 7.0 15.0 0.00 0.00 0.00 42 1008.9
20191017214008 55 271 7.0 20.0 0.00 0.00 0.00 41 1009.1
20191017213509 55 268 6.0 16.0 0.00 0.00 0.00 41 1009.0
20191017213008 55 203 6.0 17.0 0.00 0.00 0.00 40 1009.1
20191017212508 55 235 7.0 18.0 0.00 0.00 0.00 40 1009.2
20191017212008 55 231 7.0 20.0 0.00 0.00 0.00 40 1009.2
20191017211508 55 225 6.0 17.0 0.00 0.00 0.00 39 1009.3
20191017211008 56 220 7.0 13.0 0.00 0.00 0.00 38 1009.2
20191017210508 57 218 7.0 13.0 0.00 0.00 0.00 37 1009.3
20191017210008 56 242 2.0 14.0 0.00 0.00 0.00 40 1009.2
20191017205508 56 228 7.0 13.0 0.00 0.00 0.00 38 1009.2
20191017205009 56 227 5.0 12.0 0.00 0.00 0.00 37 1009.3